Location: Saluda
(35.2377°N, 82.3468°W)
Time: 03:32:58
(UTC+00:00)

Vanguard 2 - Pass Details

Date: 04 October 2022
Orbit: 553 x 2933 km, 32.9° (Epoch: 04 December)

Event Time Altitude Azimuth Distance (km) Brightness Sun altitude
Rises 19:13:35 0° 259° (W) 4,771 12.1 41.8°
Reaches altitude 10° 19:16:15 10° 258° (WSW) 4,052 12.0 41.5°
Maximum altitude 19:27:59 81° 174° (S) 2,431 10.9 39.8°
Drops below altitude 10° 19:45:27 10° 90° (E) 5,739 11.7 37.3°
Sets 19:50:03 0° 90° (E) 6,785 12.0 36.5°
